Theta_e
318 332 341 341 345 347 349 348 342 345 349 346 345 349 351 350 354 358 339 336 342 344 343 344 343 344 343 342 341 337 336 338 337 337 339 341 341 340 339 336 339 341 341 343 344 342 343 346 342
332 332 337 341 345 354 351 344 344 344 347 346 346 347 349 351 343 341 342 343 343 342 341 341 342 343 342 341 338 339 340 340 340 336 335 336 339 339 338 338 338 339 340 343 345 346 344 345 342
319 339 339 343 347 353 350 342 344 347 346 345 347 345 347 348 343 343 344 343 342 342 342 342 341 341 342 341 339 338 337 338 338 336 336 335 335 335 334 334 335 337 336 337 341 342 343 344 341
328 333 341 351 350 346 346 345 342 345 346 345 346 348 344 344 343 343 344 343 341 341 341 341 340 342 340 340 340 339 339 339 338 338 338 336 335 335 334 331 329 328 328 326 328 340 341 340 338
334 337 346 350 348 346 349 345 344 346 346 346 343 347 346 342 342 342 342 342 340 337 336 337 337 337 338 339 339 337 335 334 334 335 337 336 333 332 331 330 329 326 324 324 324 324 329 337 337
336 342 349 351 346 348 346 344 344 346 346 345 345 345 345 341 342 342 342 341 339 336 335 334 331 327 326 325 325 325 326 327 328 329 330 331 334 334 332 332 330 331 330 326 323 323 324 323 323
336 342 345 345 345 350 349 345 349 351 348 347 342 345 343 340 340 340 340 339 338 336 335 334 333 327 320 320 321 321 321 321 321 321 323 325 327 332 335 335 331 330 330 331 329 325 322 322 324
335 340 346 345 345 353 350 348 345 348 348 343 341 346 346 340 339 334 334 330 330 331 331 326 321 320 320 320 321 321 322 322 321 321 320 323 324 324 329 333 332 332 328 326 328 329 326 324 322
335 343 347 342 341 347 345 347 341 339 342 340 340 340 339 338 336 331 329 326 326 325 325 325 323 322 321 321 321 322 322 320 319 320 318 319 321 323 324 325 323 327 328 327 328 329 327 326 325
341 340 343 339 335 346 345 344 343 341 341 341 340 336 336 338 335 329 325 324 326 327 325 322 321 322 322 322 321 321 321 318 319 319 318 318 318 318 323 326 327 325 325 326 326 327 329 329 329
339 340 337 339 341 345 345 344 341 341 343 338 337 331 326 325 325 325 325 325 324 323 323 323 323 321 322 322 321 320 319 319 319 318 320 318 317 317 320 322 324 325 326 326 325 324 326 330 331
344 339 339 341 342 344 346 342 340 340 338 335 332 329 324 324 324 325 325 324 324 324 324 324 323 321 320 322 321 319 319 319 317 316 318 316 319 318 318 317 317 319 322 323 322 324 324 322 321
340 340 339 341 342 342 340 341 340 339 335 332 329 326 323 323 323 325 324 325 324 324 325 325 325 324 321 323 321 319 319 317 316 316 316 316 316 315 315 315 314 315 317 319 321 320 323 324 320
335 334 340 342 342 341 340 339 339 337 334 333 329 324 322 323 323 324 325 327 326 326 325 325 324 323 322 320 319 318 316 315 315 316 314 314 313 312 311 311 312 313 316 317 318 319 319 318 319
340 335 339 334 338 344 341 345 342 336 334 333 330 324 322 324 326 328 328 327 327 325 324 323 322 321 319 317 316 316 315 314 315 314 313 313 311 310 310 311 312 312 312 316 317 318 317 316 317
340 342 341 332 335 342 344 352 341 337 336 335 332 328 325 327 328 328 328 328 327 324 323 322 320 319 315 316 316 315 314 316 313 312 312 311 310 310 310 309 310 310 312 312 315 316 317 317 316
339 338 343 340 333 335 340 348 343 339 338 336 333 330 328 329 329 328 328 326 324 323 322 320 318 316 314 315 314 313 313 314 312 312 311 311 311 312 311 311 310 310 311 312 313 316 316 316 317
343 342 340 339 338 336 336 337 340 335 340 337 333 330 330 330 329 329 326 323 323 321 320 319 317 313 313 313 313 311 312 313 313 312 311 310 312 312 313 312 313 313 313 312 313 313 313 315 316
339 339 340 339 334 334 336 335 340 342 340 336 332 330 330 330 329 326 324 323 322 321 320 318 316 312 313 313 314 313 313 313 312 311 310 311 313 313 313 313 313 313 313 313 312 313 313 313 313
334 337 340 340 336 333 346 345 339 340 340 334 333 332 330 328 326 326 324 322 321 320 319 317 315 312 313 312 313 314 312 312 311 310 310 311 313 313 313 313 314 313 313 313 313 314 313 313 314
334 335 337 337 337 334 342 334 343 338 335 333 328 326 329 329 326 324 323 322 320 319 318 317 315 313 313 312 314 314 313 312 312 311 312 312 313 313 313 313 313 312 313 312 313 313 314 314 314
340 335 335 333 332 342 337 343 335 339 337 334 329 327 327 329 326 324 323 322 320 319 318 316 315 314 314 314 315 314 314 313 314 313 313 313 311 312 313 313 313 313 313 313 313 313 314 315 314
336 334 331 332 331 340 343 337 334 332 338 334 331 328 328 328 325 324 323 320 319 318 317 316 315 315 315 315 315 315 315 314 314 313 314 313 312 313 313 311 312 313 313 312 314 314 314 314 315
332 335 331 327 335 343 338 338 337 337 331 334 332 329 327 326 324 323 321 319 317 316 315 315 315 314 313 313 315 315 315 314 314 314 313 312 313 312 312 311 312 314 313 314 314 314 315 315 315
333 326 327 328 335 344 336 334 335 335 334 334 332 330 326 324 325 322 321 317 317 316 315 315 314 314 314 313 315 315 315 314 314 314 313 312 313 313 312 311 312 313 313 313 314 313 313 314 314
327 326 328 333 333 339 332 338 334 331 331 329 328 327 325 325 323 321 318 317 316 315 314 314 314 314 313 314 314 314 314 314 314 314 313 313 313 314 312 311 312 314 312 314 314 314 314 314 315
327 332 326 329 333 335 335 336 330 331 332 331 329 327 327 323 320 318 318 317 315 315 314 314 314 314 313 313 313 315 315 315 313 313 313 314 314 312 310 312 312 313 313 313 314 314 314 315 315
331 331 331 331 334 340 339 334 334 332 332 332 331 330 327 324 319 318 318 315 314 314 314 314 314 314 314 314 314 315 315 316 315 314 314 314 313 312 311 312 312 313 314 314 314 313 314 315 315
330 331 333 331 334 338 338 334 327 324 322 322 327 327 325 321 317 313 315 315 315 314 315 314 314 314 314 313 315 315 316 316 314 315 314 314 312 312 312 311 312 312 312 314 313 314 313 314 314
327 327 332 335 337 332 334 333 325 318 319 317 318 319 318 316 314 314 315 314 314 314 314 313 314 314 314 314 315 315 315 315 315 315 314 314 312 311 312 311 312 312 314 314 314 314 313 313 313
Wind_Speed
3 10 12 10 5 7 6 8 17 20 19 21 21 21 21 16 9 3 21 24 18 17 18 16 16 16 16 16 15 14 14 14 14 14 13 14 14 14 12 12 13 13 13 12 11 10 7 8 8
6 9 8 3 5 5 4 9 16 19 24 25 21 19 18 16 16 14 7 20 20 22 20 19 18 17 16 16 15 14 15 14 13 12 11 10 11 11 11 11 12 12 12 11 11 9 8 7 6
3 4 4 4 4 3 3 10 18 17 18 13 8 13 6 3 15 8 19 26 24 22 21 20 18 18 17 15 15 14 13 12 11 10 9 8 7 8 8 9 9 10 10 9 7 8 4 5 4
4 5 5 4 8 4 5 15 20 21 21 17 19 12 6 18 4 12 23 26 25 23 21 19 19 19 17 16 15 13 13 12 11 9 8 6 5 5 5 5 6 6 7 7 6 4 4 3 3
4 4 5 5 9 6 9 9 17 16 11 14 14 12 7 11 23 24 25 26 26 22 20 18 17 16 16 15 14 13 11 10 9 8 7 6 4 4 3 3 3 3 3 4 4 3 2 2 1
4 4 5 5 17 18 8 17 21 21 21 19 16 13 5 14 22 21 24 25 24 25 22 21 18 17 16 14 13 12 11 10 9 8 6 5 5 4 3 3 3 3 4 3 2 2 1 2 2
7 5 5 8 10 6 14 9 13 19 15 12 14 9 3 7 19 23 27 25 24 21 20 18 16 15 15 16 15 14 15 14 12 12 11 10 12 4 5 5 5 5 5 5 6 5 5 4 4
5 4 11 6 6 10 10 6 14 12 6 2 2 6 7 4 15 29 26 25 26 21 15 14 13 13 15 16 14 12 14 16 15 13 15 14 13 11 10 6 9 7 8 7 8 9 8 7 7
5 5 2 4 3 4 8 6 9 11 10 7 4 6 7 6 17 23 25 25 21 18 15 14 13 10 11 12 11 7 8 11 12 9 12 10 10 12 16 15 13 13 13 10 8 10 10 10 10
4 5 10 12 17 11 12 9 11 7 13 9 11 10 7 6 11 17 20 21 17 18 17 18 17 21 8 16 13 16 6 10 8 11 14 8 11 14 18 13 13 13 12 9 10 12 10 12 11
9 5 7 12 8 17 15 16 6 15 7 8 9 9 7 15 19 19 18 16 18 21 18 17 14 13 16 15 10 10 15 17 11 11 13 9 12 10 12 12 11 13 14 16 12 9 10 9 10
11 9 10 10 14 16 9 7 8 9 8 10 11 11 8 13 13 16 17 15 16 15 12 9 8 11 10 11 11 11 14 13 13 14 8 9 7 7 12 15 16 15 14 11 6 11 13 8 9
3 5 9 10 15 18 19 16 11 14 14 14 13 12 8 7 11 17 18 17 14 12 10 9 9 10 10 10 11 12 15 15 14 14 8 8 10 13 13 17 20 19 17 14 13 9 5 11 7
3 2 4 15 14 8 15 10 5 11 13 13 11 10 8 8 12 13 9 16 14 12 14 13 14 11 10 13 14 14 16 15 11 7 11 11 13 16 16 17 17 21 17 17 13 13 13 12 10
7 2 5 18 10 9 6 5 7 9 14 16 14 13 11 14 14 9 17 18 16 13 11 13 13 14 19 13 14 14 14 13 11 10 12 14 17 19 19 14 15 19 19 18 17 16 14 15 18
1 3 4 3 2 6 10 4 16 12 12 13 16 15 14 15 12 20 21 17 15 17 12 10 12 16 20 16 16 17 17 13 10 12 15 19 21 18 20 16 16 18 19 21 18 17 19 16 16
2 3 1 4 5 3 4 7 15 10 15 14 11 13 12 14 16 20 20 19 15 9 9 9 12 18 14 17 16 14 16 15 13 15 16 19 17 16 19 19 19 18 18 16 16 16 15 17 18
5 3 3 6 6 7 5 10 8 5 14 14 12 9 15 13 11 20 23 19 13 10 12 7 12 15 12 14 15 18 13 17 15 13 13 17 17 16 18 19 19 19 19 16 15 16 15 14 14
11 5 9 8 6 5 8 18 11 19 12 12 16 11 12 10 17 23 21 18 13 14 7 4 8 8 8 12 13 16 15 15 10 12 13 16 16 16 18 20 20 18 16 17 16 14 14 17 15
10 5 8 6 11 5 7 17 7 6 6 10 11 10 8 7 9 16 20 14 10 13 5 1 2 6 8 9 10 13 12 11 8 12 13 15 15 16 16 18 18 18 17 14 13 11 14 16 14
17 5 5 8 14 13 13 7 5 4 13 18 17 13 5 5 9 11 15 11 14 9 5 5 4 6 8 9 9 12 12 9 12 13 15 13 12 14 15 17 17 17 15 16 14 12 12 14 16
7 13 15 13 3 3 4 2 8 6 11 13 11 10 11 12 10 12 13 13 8 2 10 5 5 5 7 10 10 12 11 12 15 13 14 10 15 14 16 16 17 19 18 17 13 11 11 11 14
5 9 10 15 7 7 9 7 7 7 6 9 10 10 11 7 6 7 10 9 6 8 12 11 5 5 8 9 10 9 11 11 13 12 14 11 14 13 15 18 19 20 20 16 10 10 12 10 11
7 5 12 5 5 7 10 6 3 3 4 6 5 10 7 4 9 10 9 11 13 15 15 11 7 5 8 10 9 8 11 12 13 10 13 12 13 13 14 16 19 19 18 18 10 8 7 7 4
3 5 4 6 5 4 4 9 3 9 3 10 10 6 5 10 9 5 5 13 12 15 16 10 5 8 8 10 8 10 9 11 12 12 13 12 13 13 11 15 18 18 16 16 17 13 12 10 4
6 6 3 2 3 3 9 3 3 5 11 7 10 6 8 8 7 5 13 12 10 16 10 8 7 6 8 11 9 9 6 11 11 12 11 11 11 10 12 13 15 15 13 16 12 11 10 11 10
6 7 5 3 7 5 1 3 4 6 9 3 6 7 2 7 6 7 13 9 11 10 8 6 5 5 7 10 11 10 10 9 10 11 10 11 9 10 10 13 13 12 12 13 12 14 15 13 15
10 9 7 5 4 5 4 5 5 1 6 6 7 7 8 6 7 7 11 12 11 10 6 6 6 6 9 10 10 11 13 11 8 10 9 9 9 9 8 11 12 11 12 13 13 11 13 14 17
9 9 6 6 3 3 4 2 5 5 8 8 5 5 7 6 9 8 13 9 15 10 7 6 5 6 9 9 9 12 12 11 8 8 9 9 10 5 9 8 10 14 14 12 11 10 12 13 10
11 8 6 4 2 3 4 2 5 7 7 8 7 6 5 9 9 11 14 9 17 9 9 5 5 6 8 10 12 10 11 8 8 7 9 8 12 10 9 7 9 10 11 13 12 11 10 11 11
Wind_Direction
36 94 115 74 62 74 276 89 103 94 83 75 72 76 77 57 32 76 120 122 127 112 101 95 89 83 79 77 75 73 74 72 71 69 68 70 67 65 65 66 63 60 59 72 74 85 97 105 98
113 151 85 83 109 125 264 109 103 110 108 99 85 83 63 66 91 119 140 112 109 101 99 94 92 87 81 78 74 72 76 76 75 76 74 71 73 71 67 64 62 60 60 69 73 97 119 110 111
57 127 71 57 4 137 248 107 108 103 122 99 100 46 33 69 61 103 116 106 101 97 95 93 94 89 87 86 83 77 72 76 77 76 74 70 66 70 67 64 60 58 58 60 79 86 103 120 131
80 55 55 67 272 286 304 80 103 101 88 90 124 74 77 42 76 123 115 105 103 100 97 95 93 87 85 83 84 86 86 83 76 70 66 58 57 58 58 56 58 56 57 63 72 92 99 138 162
55 58 50 12 319 313 275 113 98 87 71 81 89 100 80 61 102 108 111 106 102 96 93 89 90 90 87 82 81 80 80 79 75 72 63 48 37 24 21 16 11 20 28 36 52 68 105 182 225
67 100 71 357 301 256 223 106 105 103 106 101 87 101 77 111 106 110 113 108 103 98 91 86 79 77 76 74 70 66 62 57 51 46 40 30 4 334 340 327 307 303 306 301 308 331 331 311 275
117 99 97 271 227 210 107 104 98 88 67 101 133 103 101 101 114 107 103 99 98 96 92 85 84 69 72 73 73 69 58 49 42 36 21 4 7 345 327 295 296 285 270 273 284 277 275 277 284
104 77 137 219 212 94 96 73 76 74 88 102 342 145 138 210 111 104 105 101 103 102 99 99 97 89 70 64 67 63 59 40 34 32 15 15 4 360 350 287 291 293 293 277 260 271 269 266 263
79 83 134 251 240 179 99 99 61 59 83 64 53 81 133 133 125 115 119 105 101 102 89 79 67 57 60 43 39 35 37 32 26 26 7 343 360 354 341 313 294 289 293 288 272 253 258 261 264
63 118 163 202 220 132 115 110 121 92 91 80 86 79 96 94 111 104 95 93 109 123 102 82 67 56 57 42 39 29 24 20 17 13 358 336 326 331 351 325 301 305 304 307 290 276 278 265 264
335 11 212 250 159 129 121 96 97 126 94 126 123 117 80 98 95 100 97 92 91 98 100 78 60 51 46 32 14 8 6 360 360 352 353 357 1 326 352 346 8 356 306 292 294 302 291 272 265
357 337 8 96 105 102 77 83 64 46 100 127 124 124 108 98 101 111 112 104 88 83 82 72 64 49 47 20 2 352 358 4 12 4 23 8 22 352 333 346 345 353 3 2 343 295 278 280 295
323 316 340 62 89 78 79 73 97 99 118 126 136 104 95 104 123 134 128 116 109 91 76 94 68 58 41 34 11 355 0 356 352 345 345 10 13 360 340 322 322 325 342 346 326 325 338 272 308
287 306 15 48 29 84 104 139 92 136 134 133 125 122 129 135 155 153 159 120 105 89 74 85 75 54 30 5 353 352 346 352 1 59 45 24 5 357 351 335 311 315 335 340 324 316 314 310 289
341 103 22 24 346 92 120 131 92 159 152 156 148 150 160 176 184 157 120 117 115 90 78 61 39 15 5 8 357 343 336 345 360 50 18 8 356 351 339 334 330 331 328 332 324 315 314 302 288
208 40 112 260 62 133 103 221 147 170 185 160 163 173 173 165 175 129 123 121 105 93 74 37 15 5 356 357 3 24 29 21 37 28 0 352 357 358 350 341 329 327 335 336 328 315 302 300 311
322 104 183 293 282 175 192 147 158 152 204 171 168 165 154 137 137 134 126 117 110 102 62 46 12 0 7 15 8 8 22 25 17 4 10 1 354 351 342 339 337 335 334 326 325 315 314 310 301
160 179 170 214 232 238 289 273 101 316 225 166 170 155 143 139 158 138 126 120 120 88 91 59 6 3 7 7 7 2 4 357 349 15 1 358 355 346 341 344 337 330 328 323 315 311 313 304 301
125 141 164 235 198 83 244 263 96 209 206 167 173 152 151 149 143 129 132 125 110 108 94 53 7 12 3 5 2 4 3 3 360 357 359 356 349 347 345 346 345 336 323 315 311 311 299 295 295
42 148 200 228 143 129 102 97 159 221 176 179 133 54 74 126 133 136 133 134 124 123 105 161 58 22 6 16 7 356 346 358 4 355 358 351 352 350 353 348 342 343 341 323 313 304 296 293 295
2 332 270 229 160 189 109 50 19 32 52 81 83 92 279 274 145 146 140 146 142 138 197 175 86 15 359 9 7 346 346 350 359 353 348 352 350 353 359 353 355 353 338 335 326 307 294 289 295
260 272 283 320 241 113 321 94 28 61 64 102 131 147 214 237 165 164 150 162 139 134 165 136 95 20 353 13 349 340 349 350 346 343 345 343 357 356 1 357 349 349 343 328 317 314 299 295 289
264 328 295 302 342 118 1 72 325 18 109 148 187 223 229 250 188 126 142 152 104 108 146 121 72 20 6 359 349 341 337 341 340 345 341 349 357 2 359 2 360 355 352 346 321 306 313 316 300
344 288 286 5 98 55 9 92 290 313 199 215 214 229 238 303 122 151 152 103 94 104 121 105 108 18 15 11 354 352 348 348 344 351 354 1 357 359 356 359 0 358 2 4 352 335 329 327 310
317 5 358 12 25 91 162 59 312 327 323 214 202 207 161 122 118 225 111 100 101 115 136 142 85 39 14 3 359 358 0 359 354 355 353 354 353 358 359 1 3 8 17 33 35 36 32 29 6
343 83 99 4 53 137 11 112 226 295 319 84 133 110 125 133 174 164 120 130 97 131 130 90 67 47 10 351 354 350 348 359 355 359 350 336 349 356 356 4 5 12 21 22 35 21 23 32 45
6 16 333 89 102 80 2 228 295 277 292 127 131 105 198 177 168 164 104 88 124 125 114 95 61 14 357 345 344 338 339 351 358 356 360 15 356 8 9 4 9 14 14 22 22 26 36 47 54
63 352 24 12 50 102 66 14 333 227 226 202 192 201 179 189 163 114 119 120 138 131 122 112 45 12 357 349 359 348 351 344 327 353 352 350 2 10 5 12 14 20 14 11 4 12 25 39 63
16 14 31 102 92 120 142 250 273 1 46 61 113 118 149 193 104 122 139 122 139 132 133 87 37 11 350 1 9 357 9 10 15 10 5 16 14 3 2 19 15 15 6 7 35 40 30 28 50
49 34 14 100 291 107 115 221 358 63 66 66 55 111 133 112 149 168 152 138 154 141 121 78 36 16 341 1 3 13 11 21 26 28 30 36 30 21 26 18 4 14 36 32 36 36 50 45 57